CW5988 Weather Reports


Display with metric or nautical units.
time (UTC)temp
F
wind
direction
speed
MPH
gust
MPH
rain 1hr
in
rain 24hr
in
rain mn
in
humidity
%
barometer
mb
20260831101922 58 202 5.0 14.0 0.00 0.00 0.00 83 1012.5
20260831101428 58 201 8.0 14.0 0.00 0.00 0.00 83 1012.6
20260831100935 58 239 6.0 13.0 0.00 0.00 0.00 83 1012.5
20260831100436 58 177 4.0 15.0 0.00 0.00 0.00 83 1012.4
20260831095919 58 225 6.0 15.0 0.00 0.00 0.00 83 1012.4
20260831095424 58 198 6.0 12.0 0.00 0.00 0.00 83 1012.4
20260831094930 58 229 6.0 12.0 0.00 0.00 0.00 83 1012.4
20260831094458 58 251 4.0 10.0 0.00 0.00 0.00 83 1012.4
20260831093953 58 201 3.0 10.0 0.00 0.00 0.00 83 1012.4
20260831093436 58 188 5.0 10.0 0.00 0.00 0.00 83 1012.4
20260831092941 58 239 4.0 10.0 0.00 0.00 0.00 83 1012.4
20260831092456 58 226 6.0 10.0 0.00 0.00 0.00 83 1012.5
20260831091921 58 240 3.0 13.0 0.00 0.00 0.00 83 1012.5
20260831091422 58 177 3.0 13.0 0.00 0.00 0.00 83 1012.4
20260831090956 58 301 3.0 12.0 0.00 0.00 0.00 83 1012.5
20260831090437 58 187 3.0 12.0 0.00 0.00 0.00 83 1012.4
20260831085919 58 326 5.0 10.0 0.00 0.00 0.00 83 1012.4
20260831085424 58 215 4.0 12.0 0.00 0.00 0.00 83 1012.4
20260831084927 58 237 5.0 14.0 0.00 0.00 0.00 83 1012.5
20260831084431 58 232 5.0 14.0 0.00 0.00 0.00 83 1012.5
20260831083933 58 233 5.0 13.0 0.00 0.00 0.00 83 1012.5
20260831083435 58 200 6.0 12.0 0.00 0.00 0.00 83 1012.6
20260831082939 58 214 4.0 11.0 0.00 0.00 0.00 83 1012.6
20260831082454 58 210 6.0 14.0 0.00 0.00 0.00 83 1012.6
20260831081919 58 222 2.0 11.0 0.00 0.00 0.00 83 1012.7
20260831081423 58 218 3.0 11.0 0.00 0.00 0.00 83 1012.7
20260831080927 58 217 6.0 11.0 0.00 0.00 0.00 83 1012.7
20260831080426 58 251 2.0 6.0 0.00 0.00 0.00 84 1012.6
20260831075932 58 257 3.0 11.0 0.00 0.00 0.00 84 1012.8
20260831075436 58 251 5.0 11.0 0.00 0.00 0.00 84 1012.9
20260831074919 58 233 2.0 6.0 0.00 0.00 0.00 83 1012.9
20260831074423 58 230 3.0 6.0 0.00 0.00 0.00 83 1012.8
20260831073929 58 222 3.0 9.0 0.00 0.00 0.00 83 1012.7
20260831073435 58 256 6.0 11.0 0.00 0.00 0.00 83 1012.7
20260831072934 58 177 3.0 11.0 0.00 0.00 0.00 83 1012.7
20260831072437 58 235 3.0 8.0 0.00 0.00 0.00 83 1012.6
20260831071921 58 218 3.0 7.0 0.00 0.00 0.00 84 1012.6
20260831071435 58 313 3.0 9.0 0.00 0.00 0.00 84 1012.7
20260831070942 58 215 5.0 9.0 0.00 0.00 0.00 84 1012.7
20260831070454 58 151 3.0 11.0 0.00 0.00 0.00 84 1012.8
20260831065922 58 225 7.0 11.0 0.00 0.00 0.00 84 1012.7
20260831065427 58 58 1.0 10.0 0.00 0.00 0.00 84 1012.8
20260831064932 58 222 2.0 10.0 0.00 0.00 0.00 84 1012.8
20260831064436 58 320 2.0 5.0 0.00 0.00 0.00 84 1012.8
20260831063920 58 228 2.0 8.0 0.00 0.00 0.00 84 1012.7
20260831063444 58 273 3.0 8.0 0.00 0.00 0.00 84 1012.7
20260831062929 58 256 2.0 6.0 0.00 0.00 0.00 84 1012.7
20260831062432 58 101 2.0 5.0 0.00 0.00 0.00 84 1012.8
20260831061936 58 130 2.0 5.0 0.00 0.00 0.00 84 1012.7
20260831061423 58 107 2.0 6.0 0.00 0.00 0.00 84 1012.8
20260831060958 58 105 3.0 7.0 0.00 0.00 0.00 84 1012.8
20260831060419 58 219 2.0 8.0 0.00 0.00 0.00 84 1012.8
20260831055924 58 83 3.0 5.0 0.00 0.00 0.00 84 1012.8
20260831055430 58 83 3.0 5.0 0.00 0.00 0.00 84 1012.7
20260831054930 58 67 2.0 5.0 0.00 0.00 0.00 84 1012.6
20260831054417 58 88 2.0 9.0 0.00 0.00 0.00 84 1012.6
20260831053921 58 205 3.0 9.0 0.00 0.00 0.00 84 1012.6
20260831053426 58 351 3.0 9.0 0.00 0.00 0.00 84 1012.6
20260831052932 58 107 1.0 5.0 0.00 0.00 0.00 84 1012.7
20260831052418 58 163 1.0 7.0 0.00 0.00 0.00 84 1012.6
20260831051923 58 134 3.0 7.0 0.00 0.00 0.00 84 1012.6
20260831051422 58 177 2.0 5.0 0.00 0.00 0.00 84 1012.7
20260831050929 58 88 3.0 5.0 0.00 0.00 0.00 84 1012.7
20260831050430 58 346 3.0 5.0 0.00 0.00 0.00 84 1012.7
20260831045934 58 75 4.0 8.0 0.00 0.00 0.00 84 1012.7
20260831045418 58 123 1.0 9.0 0.00 0.00 0.00 84 1012.6
20260831044920 58 162 4.0 9.0 0.00 0.00 0.00 84 1012.8
20260831044426 58 160 2.0 9.0 0.00 0.00 0.00 84 1012.7
20260831043930 58 163 4.0 12.0 0.00 0.00 0.00 84 1012.7
20260831043435 58 157 5.0 12.0 0.00 0.00 0.00 84 1012.7
20260831042938 58 5 2.0 8.0 0.00 0.00 0.00 84 1012.7
20260831042420 58 50 4.0 8.0 0.00 0.00 0.00 84 1012.7
20260831041926 58 82 4.0 8.0 0.00 0.00 0.00 85 1012.6
20260831041433 58 62 3.0 6.0 0.00 0.00 0.00 85 1012.7
20260831040938 58 69 3.0 8.0 0.00 0.00 0.00 85 1012.6
20260831040448 58 88 6.0 8.0 0.00 0.00 0.00 85 1012.5
20260831035959 58 52 5.0 7.0 0.00 0.00 0.00 85 1012.5
20260831035422 58 74 5.0 8.0 0.00 0.00 0.00 85 1012.3
20260831034927 58 106 4.0 8.0 0.00 0.00 0.00 85 1012.3
20260831034433 58 64 4.0 7.0 0.00 0.00 0.00 85 1012.3
20260831033919 58 27 3.0 7.0 0.00 0.00 0.00 85 1012.3
20260831033423 58 292 2.0 5.0 0.00 0.00 0.00 85 1012.4
20260831032922 58 62 1.0 8.0 0.00 0.00 0.00 85 1012.3
20260831032425 58 62 5.0 10.0 0.00 0.00 0.00 85 1012.2
20260831031938 58 83 6.0 10.0 0.00 0.00 0.00 85 1012.1
20260831031423 57 67 4.0 9.0 0.00 0.00 0.00 85 1012.1
20260831030929 57 78 5.0 8.0 0.00 0.00 0.00 85 1012.0
20260831030434 57 151 4.0 11.0 0.00 0.00 0.00 85 1011.9
20260831025933 57 322 3.0 15.0 0.00 0.00 0.00 85 1011.8
20260831025418 57 294 6.0 15.0 0.00 0.00 0.00 85 1011.8
20260831024924 57 249 5.0 13.0 0.00 0.00 0.00 85 1011.7
20260831024427 57 12 4.0 13.0 0.00 0.00 0.00 85 1011.7
20260831023933 57 320 6.0 12.0 0.00 0.00 0.00 85 1011.6
20260831023435 57 261 3.0 14.0 0.00 0.00 0.00 85 1011.6
20260831022919 57 214 5.0 11.0 0.00 0.00 0.00 84 1011.5
20260831022438 57 194 4.0 11.0 0.00 0.00 0.00 84 1011.4
20260831021925 57 192 3.0 15.0 0.00 0.00 0.00 84 1011.5
20260831021431 57 222 7.0 19.0 0.00 0.00 0.00 83 1011.6
20260831020936 57 301 8.0 19.0 0.00 0.00 0.00 83 1011.5
20260831020421 58 227 6.0 14.0 0.00 0.00 0.00 83 1011.6
20260831015946 58 254 6.0 15.0 0.00 0.00 0.00 82 1011.6
20260831015430 58 290 7.0 16.0 0.00 0.00 0.00 82 1011.6
20260831014932 58 196 5.0 17.0 0.00 0.00 0.00 81 1011.7
20260831014437 59 112 6.0 17.0 0.00 0.00 0.00 81 1011.7
20260831013942 59 224 7.0 15.0 0.00 0.00 0.00 80 1011.6
20260831013423 60 62 6.0 13.0 0.00 0.00 0.00 80 1011.7
20260831012927 60 319 4.0 8.0 0.00 0.00 0.00 80 1011.7
20260831012434 60 57 1.0 11.0 0.00 0.00 0.00 80 1011.7
20260831011933 60 83 2.0 11.0 0.00 0.00 0.00 79 1011.8
20260831011437 60 155 4.0 10.0 0.00 0.00 0.00 79 1012.0
20260831010920 60 327 5.0 11.0 0.00 0.00 0.00 79 1011.9
20260831010446 60 62 4.0 11.0 0.00 0.00 0.00 79 1011.9
20260831005927 60 59 5.0 10.0 0.00 0.00 0.00 78 1012.0
20260831005434 61 27 4.0 11.0 0.00 0.00 0.00 78 1012.1
20260831004921 61 163 7.0 12.0 0.00 0.00 0.00 78 1012.0
20260831004423 61 78 2.0 12.0 0.00 0.00 0.00 78 1012.1
20260831003926 61 31 5.0 11.0 0.00 0.00 0.00 78 1012.2
20260831003459 61 71 2.0 13.0 0.00 0.00 0.00 77 1012.0
20260831002951 61 313 5.0 13.0 0.00 0.00 0.00 77 1012.0
20260831002434 62 124 4.0 12.0 0.00 0.00 0.00 77 1012.0
20260831001938 62 66 5.0 14.0 0.00 0.00 0.00 76 1012.1
20260831001446 62 80 5.0 18.0 0.00 0.00 0.00 76 1012.1
20260831000933 62 277 3.0 18.0 0.00 0.00 0.00 77 1012.2
20260831000436 61 125 5.0 15.0 0.00 0.00 0.00 77 1012.3
20260830235918 61 244 6.0 13.0 0.00 0.00 0.00 76 1012.3
20260830235424 62 261 6.0 13.0 0.00 0.00 0.00 76 1012.4
20260830234927 62 172 4.0 13.0 0.00 0.00 0.00 75 1012.4
20260830234433 63 245 6.0 13.0 0.00 0.00 0.00 74 1012.3
20260830233933 63 8 4.0 11.0 0.00 0.00 0.00 74 1012.4
20260830233435 63 123 5.0 10.0 0.00 0.00 0.00 74 1012.5
20260830232921 63 205 4.0 10.0 0.00 0.00 0.00 74 1012.5
20260830232426 63 304 4.0 10.0 0.00 0.00 0.00 74 1012.5
20260830231929 63 17 5.0 17.0 0.00 0.00 0.00 75 1012.4
20260830231434 63 327 7.0 17.0 0.00 0.00 0.00 75 1012.5
20260830230918 63 116 5.0 14.0 0.00 0.00 0.00 75 1012.4
20260830230423 63 217 6.0 19.0 0.00 0.00 0.00 75 1012.5
20260830225921 63 209 8.0 19.0 0.00 0.00 0.00 74 1012.5
20260830225425 63 283 6.0 16.0 0.00 0.00 0.00 74 1012.6
20260830224931 63 197 6.0 16.0 0.00 0.00 0.00 74 1012.7
20260830224435 63 302 7.0 15.0 0.00 0.00 0.00 74 1012.7
20260830223919 63 258 7.0 16.0 0.00 0.00 0.00 74 1012.7
20260830223419 63 235 6.0 16.0 0.00 0.00 0.00 74 1012.7
20260830222923 63 222 7.0 17.0 0.00 0.00 0.00 74 1012.8
20260830222440 63 231 8.0 17.0 0.00 0.00 0.00 75 1012.8
20260830221923 62 195 8.0 21.0 0.00 0.00 0.00 76 1013.0
20260830221428 62 216 10.0 21.0 0.00 0.00 0.00 76 1013.1
20260830220932 62 209 8.0 21.0 0.00 0.00 0.00 76 1013.1
20260830220418 62 219 11.0 18.0 0.00 0.00 0.00 75 1013.1
20260830215922 62 209 9.0 20.0 0.00 0.00 0.00 76 1013.2
20260830215425 63 214 9.0 20.0 0.00 0.00 0.00 76 1013.3
20260830214928 62 287 11.0 21.0 0.00 0.00 0.00 76 1013.3
20260830214435 62 220 9.0 23.0 0.00 0.00 0.00 77 1013.4
20260830213918 62 359 10.0 21.0 0.00 0.00 0.00 76 1013.4
20260830213440 62 360 8.0 21.0 0.00 0.00 0.00 76 1013.6
20260830212924 62 226 12.0 21.0 0.00 0.00 0.00 76 1013.6
20260830212448 62 229 9.0 18.0 0.00 0.00 0.00 76 1013.5
20260830211930 62 226 9.0 19.0 0.00 0.00 0.00 76 1013.8
20260830211418 62 36 9.0 22.0 0.00 0.00 0.00 76 1013.9
20260830210943 62 230 12.0 22.0 0.00 0.00 0.00 75 1013.9
20260830210424 63 271 8.0 17.0 0.00 0.00 0.00 76 1013.9
20260830205927 62 199 10.0 18.0 0.00 0.00 0.00 76 1014.0
20260830205433 62 256 8.0 18.0 0.00 0.00 0.00 76 1014.1
20260830204932 62 220 8.0 18.0 0.00 0.00 0.00 77 1014.1
20260830204419 61 217 10.0 22.0 0.00 0.00 0.00 77 1014.3
20260830203928 61 205 10.0 22.0 0.00 0.00 0.00 77 1014.2
20260830203452 62 207 7.0 16.0 0.00 0.00 0.00 77 1014.4
20260830202957 61 222 9.0 16.0 0.00 0.00 0.00 77 1014.3
20260830202420 62 315 8.0 16.0 0.00 0.00 0.00 77 1014.4
20260830201944 62 253 6.0 18.0 0.00 0.00 0.00 78 1014.3
20260830201457 61 232 8.0 18.0 0.00 0.00 0.00 78 1014.4
20260830200923 62 236 7.0 19.0 0.00 0.00 0.00 78 1014.5
20260830200424 62 192 8.0 19.0 0.00 0.00 0.00 78 1014.6
20260830195923 61 27 6.0 20.0 0.00 0.00 0.00 78 1014.6
20260830195429 61 321 8.0 20.0 0.00 0.00 0.00 78 1014.6
20260830194932 61 280 7.0 18.0 0.00 0.00 0.00 79 1014.6
20260830194436 61 251 9.0 18.0 0.00 0.00 0.00 79 1014.7
20260830193920 61 191 11.0 18.0 0.00 0.00 0.00 78 1014.7
20260830193424 61 222 7.0 15.0 0.00 0.00 0.00 79 1014.7
20260830192928 61 235 4.0 15.0 0.00 0.00 0.00 80 1014.7
20260830192455 60 278 8.0 17.0 0.00 0.00 0.00 79 1014.9
20260830191920 60 237 11.0 17.0 0.00 0.00 0.00 79 1014.8
20260830191424 61 217 7.0 14.0 0.00 0.00 0.00 79 1014.7
20260830190929 60 229 9.0 17.0 0.00 0.00 0.00 79 1014.8
20260830190436 60 222 8.0 17.0 0.00 0.00 0.00 80 1014.9
20260830185933 60 200 8.0 19.0 0.00 0.00 0.00 80 1015.0
20260830185418 61 219 5.0 13.0 0.00 0.00 0.00 80 1014.8
20260830184940 60 237 5.0 13.0 0.00 0.00 0.00 80 1014.8
20260830184425 60 212 6.0 15.0 0.00 0.00 0.00 81 1015.0
20260830183929 60 261 8.0 16.0 0.00 0.00 0.00 81 1014.9
20260830183433 59 209 8.0 16.0 0.00 0.00 0.00 82 1014.9
20260830182918 59 196 8.0 15.0 0.00 0.00 0.00 82 1014.9
20260830182443 59 249 8.0 15.0 0.00 0.00 0.00 83 1014.9
20260830181920 59 194 7.0 11.0 0.00 0.00 0.00 83 1014.9
20260830181455 59 182 3.0 15.0 0.00 0.00 0.00 83 1014.9
20260830180936 58 200 6.0 15.0 0.00 0.00 0.00 83 1015.0
20260830180421 59 207 5.0 11.0 0.00 0.00 0.00 83 1015.0
20260830175925 58 261 5.0 14.0 0.00 0.00 0.00 84 1014.9
20260830175429 58 208 6.0 14.0 0.00 0.00 0.00 84 1015.0
20260830174941 58 189 4.0 10.0 0.00 0.00 0.00 84 1015.0
20260830174426 58 268 4.0 13.0 0.00 0.00 0.00 84 1015.1
20260830152420 57 230 5.0 9.0 0.00 0.00 0.00 86 1014.7
20260830151944 57 242 3.0 9.0 0.00 0.00 0.00 86 1014.6
20260830151428 57 188 4.0 9.0 0.00 0.00 0.00 86 1014.6
20260830150935 57 177 3.0 8.0 0.00 0.00 0.00 86 1014.6
20260830150435 57 249 4.0 10.0 0.00 0.00 0.00 86 1014.5
20260830145939 57 244 3.0 8.0 0.00 0.00 0.00 86 1014.5
20260830145422 57 228 3.0 8.0 0.00 0.00 0.00 86 1014.5
20260830144955 57 209 3.0 8.0 0.00 0.00 0.00 86 1014.5
20260830144420 57 199 4.0 10.0 0.00 0.00 0.00 86 1014.5
20260830143925 56 154 3.0 7.0 0.00 0.00 0.00 86 1014.6
20260830143443 56 285 2.0 9.0 0.00 0.00 0.00 86 1014.5
20260830142450 56 226 4.0 9.0 0.00 0.00 0.00 86 1014.4
20260830141430 57 219 3.0 7.0 0.00 0.00 0.00 86 1014.3
20260830140930 57 134 2.0 8.0 0.00 0.00 0.00 86 1014.2
20260830140429 57 251 4.0 8.0 0.00 0.00 0.00 86 1014.2
20260830135935 57 220 2.0 8.0 0.00 0.00 0.00 86 1014.2
20260830135419 57 221 2.0 10.0 0.00 0.00 0.00 86 1014.1
20260830134942 56 224 4.0 10.0 0.00 0.00 0.00 86 1014.0
20260830134425 57 216 3.0 5.0 0.00 0.00 0.00 86 1013.9
20260830133930 57 268 2.0 7.0 0.00 0.00 0.00 86 1013.9
20260830133429 56 183 3.0 7.0 0.00 0.00 0.00 86 1013.9
20260830132934 57 299 1.0 6.0 0.00 0.00 0.00 86 1013.8
20260830132450 57 268 2.0 6.0 0.00 0.00 0.00 86 1013.8
20260830132004 56 217 3.0 8.0 0.00 0.00 0.00 86 1013.8
20260830131457 56 268 3.0 10.0 0.00 0.00 0.00 85 1013.7
20260830130943 56 212 3.0 10.0 0.00 0.00 0.00 85 1013.6
20260830130441 57 289 2.0 7.0 0.00 0.00 0.00 86 1013.6
20260830125925 57 123 2.0 7.0 0.00 0.00 0.00 86 1013.6
20260830125431 57 326 2.0 5.0 0.00 0.00 0.00 86 1013.5
20260830124937 57 194 3.0 6.0 0.00 0.00 0.00 86 1013.4
20260830124452 57 124 3.0 7.0 0.00 0.00 0.00 86 1013.4
20260830123934 57 274 4.0 7.0 0.00 0.00 0.00 85 1013.4
20260830122933 57 205 2.0 3.0 0.00 0.00 0.00 85 1013.3
20260830122417 57 208 2.0 3.0 0.00 0.00 0.00 85 1013.2
20260830121921 57 45 1.0 5.0 0.00 0.00 0.00 85 1013.2
20260830121428 57 168 2.0 5.0 0.00 0.00 0.00 85 1013.3
20260830120935 57 222 2.0 5.0 0.00 0.00 0.00 85 1013.2
20260830120437 56 154 3.0 5.0 0.00 0.00 0.00 85 1013.2
20260830115920 57 256 2.0 7.0 0.00 0.00 0.00 85 1013.2
20260830115426 57 313 4.0 7.0 0.00 0.00 0.00 85 1013.3
20260830114931 57 160 2.0 9.0 0.00 0.00 0.00 85 1013.3
20260830114426 57 151 2.0 9.0 0.00 0.00 0.00 85 1013.3
20260830113933 57 244 3.0 10.0 0.00 0.00 0.00 85 1013.2
20260830113439 57 283 5.0 10.0 0.00 0.00 0.00 85 1013.2
20260830112918 57 157 4.0 9.0 0.00 0.00 0.00 85 1013.2
20260830112445 57 45 1.0 5.0 0.00 0.00 0.00 85 1013.2
20260830111932 57 148 2.0 7.0 0.00 0.00 0.00 85 1013.1
20260830111419 57 111 2.0 6.0 0.00 0.00 0.00 85 1013.2
20260830110925 57 10 2.0 10.0 0.00 0.00 0.00 85 1013.2
20260830110429 57 106 3.0 10.0 0.00 0.00 0.00 85 1013.2
20260830105959 57 177 1.0 13.0 0.00 0.00 0.00 85 1013.3
20260830105453 57 230 5.0 13.0 0.00 0.00 0.00 85 1013.2
20260830104935 57 201 4.0 13.0 0.00 0.00 0.00 85 1013.2
20260830104417 57 134 5.0 15.0 0.00 0.00 0.00 85 1013.2
20260830103943 57 276 7.0 15.0 0.00 0.00 0.00 85 1013.2
20260830103427 57 252 6.0 18.0 0.00 0.00 0.00 85 1013.2
20260830102931 57 233 8.0 18.0 0.00 0.00 0.00 85 1013.1
20260830102435 57 219 8.0 15.0 0.00 0.00 0.00 85 1013.1
20260830101949 57 261 8.0 17.0 0.00 0.00 0.00 85 1013.1